This demonstration page uses our WeatherBlox Daily Observations layout. Learn more.

Hourly Observations for February 1, 2017

Temp ( °F °C ) Dew Point ( °F °C ) Humidity (%) Winds ( mph kmh ) Pressure ( in mb ) Visibility ( mi km ) Precip ( " mm )
12:54 am 00:54 Cloudy 33 0.6 28 -2.2 82 82 N 7 11 30.15 1021 10 16.0934 0 0
1:54 am 01:54 Cloudy 34 1.1 29 -1.7 82 82 NNW 8 13 30.16 1021 10 16.0934 0 0
2:54 am 02:54 Mostly Cloudy 33 0.6 27 -2.8 78 78 N 12 19 30.16 1021 10 16.0934 0 0
3:54 am 03:54 Cloudy 33 0.6 27 -2.8 78 78 N 12 19 30.17 1022 10 16.0934 0 0
4:54 am 04:54 Cloudy 33 0.6 26 -3.3 75 75 N 10 17 30.2 1023 10 16.0934 0 0
5:04 am 05:04 Cloudy 32 0 27 -3 80 80 N 9 15 30.24 1024 10 16.0934 0 0
5:22 am 05:22 Cloudy 32 0 26 -3.3 79 79 N 9 15 30.24 1024 10 16.0934 0 0
5:54 am 05:54 Cloudy 32 0 25 -3.9 75 75 N 9 15 30.22 1023 10 16.0934 0 0
6:54 am 06:54 Cloudy 31 -0.6 23 -5 72 72 NNW 13 20 30.24 1024 10 16.0934 0 0
7:54 am 07:54 Cloudy 31 -0.6 21 -6.1 67 67 N 15 24 30.26 1025 10 16.0934 0 0
8:54 am 08:54 Mostly Cloudy 32 0 22 -5.6 66 66 NNW 13 20 30.27 1025 10 16.0934 0 0
9:54 am 09:54 Cloudy 31 -0.6 21 -6.1 67 67 N 18 30 30.3 1026 10 16.0934 0 0
10:54 am 10:54 Cloudy 32 0 19 -7.2 59 59 N 17 28 30.32 1027 10 16.0934 0 0
11:54 am 11:54 Cloudy 32 0 18 -7.8 56 56 N 16 26 30.33 1027 10 16.0934 0 0
12:54 pm 12:54 Mostly Cloudy 33 0.6 18 -7.8 54 54 NNW 17 28 30.34 1027 10 16.0934 0 0
1:54 pm 13:54 Cloudy 32 0 18 -7.8 56 56 NNW 15 24 30.35 1028 10 16.0934 0 0
2:54 pm 14:54 Cloudy 31 -0.6 19 -7.2 61 61 NNW 16 26 30.36 1028 10 16.0934 0 0
3:12 pm 15:12 Cloudy 30 -1 19 -7 64 64 NNW 17 28 30.39 1029 10 16.0934 0 0
3:54 pm 15:54 Cloudy 30 -1.1 18 -7.8 61 61 N 16 26 30.38 1029 10 16.0934 0 0
4:40 pm 16:40 Mostly Cloudy 30 -1 18 -8 59 59 N 16 26 30.42 1030 10 16.0934 0 0
4:54 pm 16:54 Mostly Cloudy 29 -1.7 17 -8.3 61 61 NNW 17 28 30.4 1030 10 16.0934 0 0
5:54 pm 17:54 Cloudy 37 3 28 -2 70 70 NE 6 9 30.06 1018 10 16.0934 0 0
6:54 pm 18:54 Clear 24 -4.4 12 -11.1 60 60 N 15 24 30.47 1032 10 16.0934 0 0
7:54 pm 19:54 Clear 23 -5 12 -11.1 63 63 N 12 19 30.5 1033 10 16.0934 0 0
8:54 pm 20:54 Clear 23 -5 12 -11.1 63 63 N 14 22 30.53 1034 10 16.0934 0 0
9:54 pm 21:54 Clear 23 -5 11 -11.7 60 60 N 14 22 30.54 1034 10 16.0934 0 0
10:54 pm 22:54 Clear 23 -5 12 -11.1 63 63 N 12 19 30.54 1034 10 16.0934 0 0

Powered by AerisWeather